Weather History for KRKS - April, 2013

Change the Weather History Date:

Wednesday, April 17, 2013

  Actual Average Record
Temperature  
Mean Temperature 21 °F 42 °F  
Max Temperature 27 °F 54 °F 76 °F (1987)
Min Temperature 15 °F 30 °F 15 °F (2013)
Degree Days  
Heating Degree Days 44 23  
Month to date heating degree days 508 428  
Since 1 July heating degree days 6904 7257  
Cooling Degree Days 0 0  
Month to date cooling degree days 0 0  
Year to date cooling degree days 0 0  
Moisture  
Dew Point 10 °F    
Average Humidity 62    
Maximum Humidity 74    
Minimum Humidity 50    
Precipitation  
Precipitation T in 0.03 in 0.98 in (1986)
Month to date precipitation T 0.47  
Year to date precipitation T 2.08  
Sea Level Pressure  
Sea Level Pressure 30.14 in    
Wind  
Wind Speed 17 mph (NE)    
Max Wind Speed 28 mph    
Max Gust Speed 37 mph    
Visibility 10 miles    
Events      
T = Trace of Precipitation, MM = Missing Value Source: NWS Daily Summary

Daily Weather History Graph

Daily Weather History Graph

Search for Another Location

Airport or City:

Trip Planner

Search our weather history database for the weather conditions in past years. The results will help you decide how hot, cold, wet, or windy it might be!

Date:

Astronomy

Apr. 17, 2013 Rise Set
Actual Time 6:32 AM MDT 7:59 PM MDT
Civil Twilight 6:03 AM MDT 8:28 PM MDT
Nautical Twilight 5:28 AM MDT 9:03 PM MDT
Astronomical Twilight 4:52 AM MDT 9:40 PM MDT
Moon 11:48 AM MDT (4/17) 1:40 AM MDT (4/17)
Length of Visible Light 14h 24m
Length of Day
13h 26m
Waxing Crescent, 43% of the Moon is Illuminated
Apr 17
Waxing Crescent
Apr 18
First Quarter
Apr 25
Full
May 2
Last Quarter
May 9
New

Hourly Weather History & Observations

Time (MDT) Temp. Windchill Dew Point Humidity Pressure Visibility Wind Dir Wind Speed Gust Speed Precip Events Conditions
12:54 AM 15.1 °F -0.1 °F 9.0 °F 77% 30.12 in 10.0 mi ENE 15.0 mph 23.0 mph N/A   Clear
1:54 AM 15.1 °F -1.1 °F 9.0 °F 77% 30.12 in 10.0 mi NE 17.3 mph 21.9 mph N/A   Clear
2:54 AM 15.1 °F 1.1 °F 9.0 °F 77% 30.09 in 10.0 mi ENE 12.7 mph - N/A   Mostly Cloudy
3:54 AM 16.0 °F 1.1 °F 9.0 °F 74% 30.08 in 10.0 mi NE 15.0 mph - N/A   Mostly Cloudy
4:54 AM 16.0 °F -0.9 °F 9.0 °F 74% 30.09 in 10.0 mi ENE 19.6 mph 31.1 mph N/A   Overcast
5:54 AM 15.1 °F -2.9 °F 9.0 °F 77% 30.09 in 10.0 mi NE 21.9 mph 29.9 mph N/A   Overcast
6:54 AM 16.0 °F -0.4 °F 8.1 °F 71% 30.11 in 10.0 mi NE 18.4 mph 28.8 mph N/A   Overcast
8:54 AM 17.1 °F 0.1 °F 8.1 °F 68% 30.15 in 10.0 mi NNE 20.7 mph 29.9 mph N/A   Overcast
9:39 AM 17.6 °F 1.7 °F 8.6 °F 68% 29.97 in 10.0 mi NNE 18.4 mph 27.6 mph N/A   Overcast
9:54 AM 17.1 °F -0.3 °F 8.1 °F 68% 30.15 in 10.0 mi NNE 21.9 mph 27.6 mph N/A   Overcast
10:54 AM 19.9 °F 5.7 °F 10.0 °F 65% 30.16 in 10.0 mi NE 16.1 mph 26.5 mph N/A   Overcast
11:38 AM 19.4 °F 3.2 °F 8.6 °F 63% 29.99 in 10.0 mi NNE 20.7 mph 28.8 mph N/A   Overcast
11:54 AM 19.9 °F 3.5 °F 9.0 °F 62% 30.17 in 10.0 mi NNE 21.9 mph - N/A   Overcast
12:54 PM 21.9 °F 7.3 °F 10.9 °F 63% 30.17 in 10.0 mi NE 18.4 mph 25.3 mph N/A   Overcast
1:32 PM 21.2 °F 5.6 °F 12.2 °F 68% 30.00 in 8.0 mi NE 20.7 mph 28.8 mph 0.00 in   Overcast
1:49 PM 24.8 °F 9.6 °F 12.2 °F 59% 30.00 in 10.0 mi ENE 23.0 mph 28.8 mph 0.00 in   Overcast
1:54 PM 24.1 °F 9.4 °F 12.0 °F 60% 30.16 in 10.0 mi NE 20.7 mph 28.8 mph 0.00 in   Overcast
2:54 PM 25.0 °F 10.6 °F 10.0 °F 53% 30.17 in 10.0 mi NE 20.7 mph 28.8 mph N/A   Overcast
3:54 PM 26.1 °F 12.0 °F 10.9 °F 53% 30.17 in 10.0 mi ENE 20.7 mph 25.3 mph N/A   Scattered Clouds
4:54 PM 24.1 °F 10.1 °F 10.9 °F 57% 30.19 in 10.0 mi ENE 18.4 mph 27.6 mph N/A   Overcast
6:54 PM 21.9 °F 7.3 °F 10.0 °F 60% 30.22 in 10.0 mi ENE 18.4 mph - N/A   Overcast
7:54 PM 19.9 °F 6.7 °F 9.0 °F 62% 30.25 in 10.0 mi East 13.8 mph - N/A   Mostly Cloudy
8:54 PM 19.9 °F 6.2 °F 10.0 °F 65% 30.25 in 10.0 mi ENE 15.0 mph - N/A   Overcast
10:54 PM 18.0 °F 6.1 °F 9.0 °F 68% 30.29 in 10.0 mi East 10.4 mph - N/A   Overcast
11:54 PM 17.1 °F 6.6 °F 10.0 °F 74% 30.30 in 10.0 mi East 8.1 mph - N/A   Overcast